CAPE
0 0 0 1 0 0 0 0 0 0 0 0 0 0 0 0 0 0 0 0 0 0 0 0 0 0 0 0 0 0 0 0 0 0 0 0 0 0 0 0 0 0 0 0 0 0 0
0 0 0 0 0 0 0 0 0 0 0 0 0 0 0 0 0 0 0 0 0 0 0 0 0 0 0 0 0 0 0 0 0 0 0 0 0 0 0 0 0 0 0 0 0 0 0
2 0 0 0 0 0 0 0 0 0 0 0 0 0 0 0 0 0 0 0 0 0 0 0 0 0 0 0 0 0 0 0 0 0 0 0 0 0 0 0 0 0 0 0 0 0 0
3 0 0 0 8 10 3 0 0 0 0 0 0 0 0 0 0 0 0 0 0 0 0 0 0 0 0 0 0 0 0 0 0 0 0 0 0 0 0 0 0 0 0 0 0 0 0
11 14 3 0 0 0 0 7 8 0 0 0 0 0 0 0 0 0 0 0 0 0 0 0 0 0 0 0 0 0 0 0 0 0 0 0 0 0 0 0 0 0 0 0 0 0 0
18 16 7 0 0 0 0 7 1 0 5 0 0 0 0 0 0 0 0 0 0 0 0 0 0 0 0 0 0 0 0 0 0 0 0 0 0 0 0 0 0 0 0 0 0 0 0
21 26 17 12 0 0 0 0 0 0 0 11 0 0 0 0 0 0 0 0 0 0 0 0 0 0 0 0 0 0 0 0 0 0 0 0 0 0 0 0 0 0 0 0 0 0 0
0 4 7 11 7 0 0 0 5 0 0 13 9 0 0 0 0 0 0 0 1 5 0 0 0 0 0 0 0 0 0 0 0 0 0 0 0 0 0 0 0 0 0 0 0 0 0
0 0 0 0 0 0 0 0 0 0 0 0 0 0 0 0 0 0 32 0 0 3 0 0 0 0 0 0 0 0 0 0 0 0 0 0 0 0 0 0 0 0 0 0 0 0 0
0 1 3 0 0 0 0 0 0 0 0 7 0 0 0 0 0 0 3 0 0 6 0 0 0 0 0 0 0 0 0 0 0 0 0 0 0 0 0 0 0 0 0 0 0 0 0
6 3 1 3 7 8 6 0 0 0 0 3 3 0 0 0 0 0 0 0 3 0 115 0 0 0 0 0 0 0 0 0 0 0 0 0 0 0 0 0 0 0 0 0 0 0 0
1 0 2 19 19 32 29 16 2 0 0 0 0 0 0 0 1 0 0 0 1 28 15 0 0 0 0 0 0 0 0 0 0 0 0 0 0 0 0 0 0 0 0 0 0 0 0
10 8 13 9 18 23 17 31 30 10 0 0 0 0 1 2 0 0 0 7 16 8 0 0 0 0 0 0 0 0 0 0 0 0 0 0 0 0 0 0 0 0 0 0 0 0 0
13 18 16 3 6 33 32 39 48 26 9 17 5 0 0 0 0 0 0 1 23 0 0 0 0 0 0 0 0 0 0 0 0 0 0 0 0 0 0 0 0 0 0 0 0 0 0
0 4 3 19 23 21 33 43 46 43 17 46 6 10 0 0 0 0 0 0 1 0 0 0 0 0 0 0 0 0 0 0 0 0 0 0 0 0 0 0 0 0 0 0 4 0 0
3 7 6 4 1 16 33 48 51 46 47 41 16 7 0 0 1 0 0 0 0 0 0 0 8 2 0 0 2 2 0 0 0 0 0 0 0 0 0 0 0 0 0 0 0 0 0
17 6 1 5 17 32 25 25 24 44 49 51 30 10 7 2 73 1 0 0 0 0 0 0 1 41 20 8 0 6 3 0 0 0 0 0 9 0 0 0 0 0 11 0 5 0 0
46 29 0 6 11 8 3 0 1 36 46 52 42 12 23 53 27 7 4 0 0 0 0 0 0 0 22 34 28 10 0 0 0 0 0 1 0 22 0 0 0 0 0 8 7 2 2
58 40 25 17 22 39 45 37 19 43 48 73 43 24 73 88 23 24 5 0 0 0 0 0 0 0 0 1 30 33 3 0 0 0 2 17 47 9 0 9 11 0 0 2 3 54 4
53 53 57 33 24 32 48 61 51 46 55 83 28 54 59 85 47 25 19 6 1 0 0 0 0 0 0 0 17 17 1 0 0 0 0 42 102 33 2 0 0 8 0 0 3 36 3
61 63 55 51 55 57 50 58 74 72 80 110 10 50 34 32 53 31 30 15 6 8 0 0 0 0 0 0 4 0 0 0 0 1 7 86 89 81 0 0 0 41 27 0 0 1 18
17 29 33 54 49 41 43 57 69 92 88 105 42 93 54 46 40 53 50 32 21 3 18 14 0 0 0 1 0 0 0 0 21 1 5 18 21 27 0 0 0 5 10 0 0 0 0
3 4 9 12 21 12 30 56 60 69 109 99 34 4 27 27 43 45 34 15 5 4 6 0 3 10 21 22 9 14 4 0 31 36 9 29 7 52 35 0 5 41 0 0 0 0 0
8 4 9 23 26 13 27 30 37 63 107 101 70 76 48 50 60 56 24 27 8 6 14 3 2 4 0 0 0 0 0 0 3 1 18 14 19 13 31 99 64 3 0 0 0 1 0
14 16 13 24 39 51 52 58 55 55 70 188 110 113 125 47 41 51 32 22 28 26 18 10 0 1 21 82 144 52 47 0 0 1 0 0 12 11 12 16 8 0 0 2 7 0 0
30 33 43 48 52 52 64 61 53 64 91 178 199 145 69 47 48 38 52 38 57 59 64 24 8 5 29 80 127 43 18 16 0 0 0 0 27 26 2 170 79 0 1 0 2 17 3
41 49 54 69 77 77 78 73 70 74 88 123 81 173 84 39 49 41 32 69 44 48 64 38 19 73 133 201 291 202 168 14 19 3 54 20 23 12 63 99 6 0 0 28 9 0 37
45 43 45 64 55 50 56 72 81 75 69 100 37 158 86 22 29 41 17 42 61 64 67 0 17 75 204 201 251 153 122 78 62 4 0 88 36 21 10 44 20 0 1 1 0 35 0
42 52 61 52 38 39 41 60 59 70 68 84 38 30 115 103 31 17 30 35 34 29 92 90 44 51 110 131 190 100 250 102 32 24 0 10 254 224 151 2 0 0 2 3 6 0 0
CIN
-0 -0 -0 -0 -0 -0 -0 -0 -0 -0 -0 -0 -0 -0 -0 -0 -0 -0 -0 -0 -0 -0 -0 -0 -0 -0 -0 -0 -0 -0 -0 -0 -0 -0 -0 -0 -0 -0 -0 -0 -0 -0 -0 -0 -0 -0 -0
-0 -0 -0 -0 -0 -0 -0 -0 -0 -0 -0 -0 -0 -0 -0 -0 -0 -0 -0 -0 -0 -0 -0 -0 -0 -0 -0 -0 -0 -0 -0 -0 -0 -0 -0 -0 -0 -0 -0 -0 -0 -0 -0 -0 -0 -0 -0
-0 -0 -0 -0 -0 -0 -0 -0 -0 -0 -0 -0 -0 -0 -0 -0 -0 -0 -0 -0 -0 -0 -0 -0 -0 -0 -0 -0 -0 -0 -0 -0 -0 -0 -0 -0 -0 -0 -0 -0 -0 -0 -0 -0 -0 -0 -0
-0 -0 -0 -0 -1 -1 -0 -0 -0 -0 -0 -0 -0 -0 -0 -0 -0 -0 -0 -0 -0 -0 -0 -0 -0 -0 -0 -0 -0 -0 -0 -0 -0 -0 -0 -0 -0 -0 -0 -0 -0 -0 -0 -0 -0 -0 -0
-2 -2 -1 -0 -0 -0 -0 -1 -0 -0 -0 -0 -0 -0 -0 -0 -0 -0 -0 -0 -0 -0 -0 -0 -0 -0 -0 -0 -0 -0 -0 -0 -0 -0 -0 -0 -0 -0 -0 -0 -0 -0 -0 -0 -0 -0 -0
-3 -1 -1 -0 -0 -0 -0 -0 -0 -0 -1 -0 -0 -0 -0 -0 -0 -0 -0 -0 -0 -0 -0 -0 -0 -0 -0 -0 -0 -0 -0 -0 -0 -0 -0 -0 -0 -0 -0 -0 -0 -0 -0 -0 -0 -0 -0
-5 -1 -1 -1 -0 -0 -0 -0 -0 -0 -0 -0 -0 -0 -0 -0 -0 -0 -0 -0 -0 -0 -0 -0 -0 -0 -0 -0 -0 -0 -0 -0 -0 -0 -0 -0 -0 -0 -0 -0 -0 -0 -0 -0 -0 -0 -0
-0 -3 -3 -3 -1 -0 -0 -0 -0 -0 -0 -0 -0 -0 -0 -0 -0 -0 -1 -0 -0 -0 -0 -0 -0 -0 -0 -0 -0 -0 -0 -0 -0 -0 -0 -0 -0 -0 -0 -0 -0 -0 -0 -0 -0 -0 -0
-0 -0 -0 -0 -0 -0 -0 -0 -0 -0 -0 -0 -0 -0 -0 -0 -0 -1 -0 -0 -0 -0 -0 -0 -0 -0 -0 -0 -0 -0 -0 -0 -0 -0 -0 -0 -0 -0 -0 -0 -0 -0 -0 -0 -0 -0 -0
-0 -0 -2 -0 -0 -0 -0 -0 -0 -0 -0 -0 -0 -0 -0 -0 -0 -0 -1 -0 -0 -7 -0 -0 -0 -0 -0 -0 -0 -0 -0 -0 -0 -0 -0 -0 -0 -0 -0 -0 -0 -0 -0 -0 -0 -0 -0
-2 -2 -1 -2 -1 -2 -2 -0 -0 -0 -0 -0 -0 -0 -0 -0 -0 -0 -0 -0 -5 -0 -2 -0 -0 -0 -0 -0 -0 -0 -0 -0 -0 -0 -0 -0 -0 -0 -0 -0 -0 -0 -0 -0 -0 -0 -0
-3 -0 -2 -4 -4 -1 -1 -1 -0 -0 -0 -0 -0 -0 -0 -0 -0 -0 -0 -0 -25 -0 -0 -0 -0 -0 -0 -0 -0 -0 -0 -0 -0 -0 -0 -0 -0 -0 -0 -0 -0 -0 -0 -0 -0 -0 -0
-1 -2 -2 -2 -2 -1 -1 -0 -1 -1 -0 -0 -0 -0 -0 -0 -0 -0 -0 -26 -4 -0 -0 -0 -0 -0 -0 -0 -0 -0 -0 -0 -0 -0 -0 -0 -0 -0 -0 -0 -0 -0 -0 -0 -0 -0 -0
-1 -1 -0 -3 -3 -0 -0 -0 -0 -1 -3 -1 -2 -0 -0 -0 -0 -0 -0 -2 -0 -0 -0 -0 -0 -0 -0 -0 -0 -0 -0 -0 -0 -0 -0 -0 -0 -0 -0 -0 -0 -0 -0 -0 -0 -0 -0
-0 -0 -2 -1 -0 -1 -0 -0 -0 -0 -1 -1 -8 -0 -0 -0 -0 -0 -0 -0 -0 -0 -0 -0 -0 -0 -0 -0 -0 -0 -0 -0 -0 -0 -0 -0 -0 -0 -0 -0 -0 -0 -0 -0 -40 -0 -0
-0 -0 -1 -2 -1 -3 -1 -1 -0 -0 -1 -1 -0 -0 -0 -0 -0 -0 -0 -0 -0 -0 -0 -0 -0 -0 -0 -0 -0 -0 -0 -0 -0 -0 -0 -0 -0 -0 -0 -0 -0 -0 -0 -0 -0 -0 -0
-0 -0 -0 -1 -1 -1 -1 -1 -1 -0 -1 -2 -0 -0 -4 -0 -0 -0 -0 -0 -0 -0 -0 -0 -0 -0 -0 -0 -0 -0 -0 -0 -0 -0 -0 -0 -2 -0 -0 -0 -0 -0 -79 -0 -67 -0 -0
-0 -0 -0 -1 -1 -1 -2 -0 -0 -0 -3 -1 -0 -0 -5 -0 -0 -0 -0 -0 -0 -0 -0 -0 -0 -0 -0 -0 -4 -25 -0 -0 -0 -0 -0 -74 -0 -2 -0 -0 -0 -0 -7 -96 -49 -36 -67
-0 -0 -0 -0 -0 -0 -0 -0 -0 -0 -1 -0 -0 -0 -0 -0 -0 -0 -0 -0 -0 -0 -0 -0 -0 -0 -0 -0 -0 -2 -35 -0 -0 -0 -4 -17 -21 -0 -0 -1 -1 -0 -0 -58 -80 -41 -2
-1 -0 -0 -0 -0 -0 -0 -0 -0 -0 -0 -0 -0 -0 -0 -0 -0 -0 -0 -0 -0 -0 -0 -0 -0 -0 -0 -0 -0 -0 -0 -0 -0 -0 -0 -92 -6 -30 -0 -0 -0 -0 -0 -0 -60 -68 -84
-0 -0 -0 -0 -0 -0 -0 -0 -0 -0 -1 -0 -1 -0 -0 -0 -0 -0 -0 -0 -0 -0 -0 -0 -0 -0 -0 -0 -0 -0 -0 -0 -0 -79 -82 -2 -0 -0 -0 -0 -0 -6 -2 -0 -11 -30 -52
-0 -0 -0 -0 -0 -0 -0 -0 -0 -0 -2 -0 -0 -0 -0 -0 -0 -0 -0 -0 -0 -0 -0 -0 -0 -0 -0 -0 -0 -0 -0 -0 -0 -0 -0 -0 -37 -25 -0 -0 -0 -39 -17 -0 -0 -0 -0
-0 -0 -0 -0 -0 -0 -0 -0 -0 -1 -1 -0 -0 -0 -0 -0 -0 -0 -0 -0 -0 -0 -0 -0 -0 -0 -0 -0 -0 -0 -0 -0 -0 -0 -0 -0 -0 -9 -17 -0 -0 -1 -0 -0 -0 -0 -0
-0 -0 -0 -0 -0 -0 -0 -0 -0 -0 -0 -0 -0 -0 -0 -0 -0 -0 -0 -0 -0 -0 -0 -0 -0 -0 -0 -0 -0 -0 -0 -0 -0 -0 -0 -0 -0 -0 -9 -0 -0 -0 -0 -0 -0 -0 -0
-0 -0 -0 -0 -0 -0 -0 -0 -0 -0 -0 -0 -0 -0 -0 -0 -0 -0 -0 -0 -0 -0 -0 -0 -0 -0 -0 -0 -0 -0 -0 -0 -0 -0 -0 -0 -0 -0 -0 -1 -7 -0 -0 -2 -37 -0 -0
-0 -0 -0 -0 -0 -0 -0 -0 -0 -0 -0 -0 -0 -0 -0 -0 -0 -0 -0 -0 -0 -0 -0 -0 -0 -0 -0 -0 -0 -0 -0 -0 -0 -0 -0 -0 -0 -0 -0 -0 -1 -0 -39 -0 -13 -3 -5
-0 -0 -0 -0 -0 -0 -0 -0 -0 -0 -0 -0 -0 -0 -0 -0 -0 -0 -0 -0 -0 -0 -0 -0 -0 -0 -0 -0 -0 -0 -0 -0 -0 -0 -35 -16 -0 -27 -0 -0 -0 -0 -0 -8 -3 -0 -41
-0 -0 -0 -0 -3 -4 -3 -1 -0 -0 -0 -0 -0 -0 -0 -0 -0 -0 -0 -0 -0 -0 -0 -0 -0 -0 -0 -0 -0 -0 -0 -0 -0 -0 -0 -14 -12 -2 -0 -15 -0 -0 -1 -3 -0 -145 -0
-1 -2 -4 -5 -3 -5 -0 -0 -3 -0 -0 -0 -0 -1 -0 -0 -0 -0 -0 -0 -0 -0 -0 -0 -0 -3 -0 -0 -0 -0 -0 -0 -0 -0 -0 -1 -0 -0 -1 -0 -0 -0 -4 -47 -175 -0 -0
Wind_Speed
9 9 9 9 8 8 10 10 9 8 9 9 9 8 8 8 8 9 10 9 10 10 11 13 17 21 10 7 2 5 6 7 10 6 7 6 7 6 8 3 5 10 9 7 10 11 14
8 8 8 8 8 9 10 10 9 9 9 9 9 9 10 10 9 8 10 11 10 10 10 10 13 20 5 9 4 2 6 10 8 9 6 7 3 3 7 7 8 4 10 14 14 15 18
8 7 8 8 7 9 8 8 8 9 9 9 9 9 10 10 12 11 9 11 11 11 11 9 8 6 7 11 3 2 5 6 6 7 7 5 4 6 1 6 3 8 13 13 8 2 4
6 7 8 9 9 9 7 7 7 8 8 9 10 10 10 10 10 12 12 11 12 12 12 8 6 3 9 4 4 9 9 11 7 8 6 3 4 5 7 2 9 9 9 9 8 4 3
6 7 8 8 8 8 7 8 8 8 8 8 9 10 11 11 10 12 13 14 14 11 9 8 5 3 10 2 8 4 11 11 11 9 6 3 5 5 5 11 10 8 10 5 6 2 2
4 7 7 7 7 7 7 8 9 9 8 8 9 10 10 11 12 13 16 12 9 8 6 4 3 6 8 4 5 6 1 9 8 10 9 10 9 11 10 10 11 6 9 8 9 2 8
9 6 6 6 6 7 7 8 8 9 9 8 10 10 11 12 13 14 12 5 6 7 7 9 1 5 0 6 4 1 1 6 11 14 16 14 13 17 16 14 13 10 13 15 12 12 13
7 7 7 6 5 5 5 7 7 8 10 9 10 11 13 14 15 16 7 2 8 8 10 10 16 15 15 6 8 10 3 8 10 17 18 10 19 20 13 12 14 13 14 17 12 5 6
5 5 4 4 4 4 5 7 8 8 9 10 11 12 13 15 16 4 6 5 12 9 8 7 13 14 14 14 14 20 9 5 13 17 16 22 12 8 14 16 15 16 18 16 15 10 16
2 3 2 2 2 3 4 5 7 8 9 9 9 11 12 19 2 6 3 13 10 4 4 6 8 9 12 11 14 21 18 13 12 17 20 18 19 13 9 13 15 18 12 14 14 8 8
2 1 1 2 1 0 0 2 4 6 8 8 8 9 10 10 3 4 9 15 8 2 4 5 7 2 4 17 5 15 22 18 22 16 10 20 15 20 20 20 12 14 5 9 10 12 10
1 2 3 4 4 3 3 3 1 4 6 7 8 9 8 3 3 4 12 11 2 5 11 7 6 11 12 19 19 3 12 19 19 21 17 22 7 13 17 16 17 3 8 6 8 9 12
3 3 4 4 4 4 5 4 3 2 3 5 6 7 4 2 2 7 9 2 3 8 2 9 9 10 15 12 15 19 15 18 18 19 22 26 24 16 9 11 7 15 11 6 9 9 11
1 2 6 6 5 6 6 6 5 4 3 3 5 3 2 1 3 6 2 2 10 8 15 5 4 10 18 12 15 19 16 19 25 26 18 24 23 27 19 26 14 20 17 11 11 12 12
4 4 2 3 7 7 6 6 6 6 4 1 5 1 3 2 4 2 3 8 7 5 4 8 13 15 17 19 15 14 23 23 25 27 29 21 28 20 21 26 23 14 18 24 19 19 10
6 6 5 5 4 3 5 7 7 6 6 5 3 1 3 3 5 4 5 10 9 6 4 7 11 8 14 17 17 13 14 13 25 26 26 24 26 21 18 14 23 28 9 11 13 15 18
8 8 6 4 4 5 5 4 5 6 7 9 4 3 5 6 6 6 8 10 10 11 7 8 11 13 13 11 10 16 25 23 20 21 24 20 21 24 13 18 24 15 20 14 12 14 14
8 7 7 6 6 6 6 5 6 7 7 8 4 4 5 9 8 6 11 7 7 14 7 8 11 15 15 12 10 10 10 20 11 22 24 19 12 20 28 17 19 23 27 28 13 18 9
10 10 9 10 9 9 8 9 7 6 9 3 4 4 5 10 9 12 10 11 16 15 15 10 13 12 15 21 10 13 15 17 22 25 16 15 11 14 25 24 18 14 25 22 24 14 14
11 11 11 12 11 11 11 10 9 8 10 4 3 5 5 6 11 15 16 20 21 13 19 23 19 15 17 20 16 12 15 10 23 31 28 10 11 17 19 25 21 18 23 26 24 12 19
10 11 11 12 14 14 14 13 12 12 12 7 5 6 8 7 13 20 19 14 18 22 16 14 16 22 22 22 21 25 24 27 23 22 17 9 16 16 22 32 30 27 25 26 23 26 23
10 9 10 12 13 15 16 16 15 14 13 7 4 4 7 14 15 22 22 25 26 24 19 16 21 21 16 17 21 24 23 20 15 18 15 12 5 20 27 29 28 28 24 26 28 28 27
13 14 14 15 15 17 18 17 17 17 16 8 3 2 2 10 20 15 22 27 28 24 23 24 23 20 18 15 17 19 20 13 17 18 20 14 4 6 26 28 22 17 31 28 24 21 21
16 18 19 19 19 20 19 19 19 21 21 11 5 6 6 15 15 20 26 26 30 26 25 21 17 20 24 20 22 24 27 25 24 29 19 15 22 11 7 12 21 23 16 26 27 24 19
18 20 21 22 21 22 22 23 24 24 24 12 10 8 5 13 18 19 22 23 24 23 24 23 23 19 13 15 14 13 14 22 28 29 25 22 23 8 7 4 11 20 23 17 19 20 23
21 23 24 25 25 25 26 26 27 26 28 15 13 11 7 7 17 21 23 23 20 18 19 23 21 17 15 11 12 18 14 17 16 15 27 26 29 17 5 7 14 21 16 13 9 18 19
24 24 25 25 26 26 28 29 30 30 30 18 9 19 11 11 15 17 9 14 18 19 15 17 17 17 17 12 14 16 19 19 21 21 17 17 16 17 12 8 12 9 5 16 14 14 11
23 23 23 22 22 23 25 29 32 33 33 22 12 15 16 11 17 18 26 24 16 13 15 10 6 12 10 14 14 15 14 17 20 31 23 15 14 10 9 9 21 10 15 18 9 1 7
18 19 19 20 20 20 20 22 27 34 34 30 12 13 14 11 9 18 25 23 25 26 15 14 11 12 9 8 12 13 14 10 21 20 22 15 17 16 17 13 5 8 13 5 7 8 9
Wind_Direction
88 83 72 79 69 70 66 59 57 51 41 30 24 24 12 347 335 336 336 331 332 333 333 335 334 324 334 293 294 75 135 143 176 198 230 209 233 248 261 265 251 253 286 289 281 268 268
87 80 76 75 72 65 66 56 45 46 44 36 22 16 14 356 339 338 330 324 322 321 324 332 336 318 317 277 57 104 138 161 189 204 208 219 262 294 290 268 257 346 292 286 281 278 274
102 90 78 62 63 64 59 52 50 43 35 30 25 17 8 5 349 331 321 316 311 309 312 321 340 320 282 269 51 14 182 210 206 218 216 214 238 239 346 255 311 288 283 283 259 275 240
118 109 91 76 62 58 52 46 36 40 36 24 13 17 6 360 355 346 332 306 298 299 304 305 313 273 272 273 302 269 250 234 221 229 246 165 214 257 245 304 251 273 276 277 137 297 134
133 132 111 90 71 61 51 42 33 27 25 20 8 6 7 355 351 334 320 302 283 291 285 281 240 262 270 314 254 290 231 239 210 209 206 176 225 249 212 252 270 191 282 272 294 266 256
134 135 127 108 81 60 58 58 42 28 14 11 9 360 1 349 340 334 315 279 291 281 223 211 259 254 226 283 334 318 273 238 211 186 199 213 218 233 223 233 256 304 273 257 275 154 281
66 87 116 120 102 68 51 53 50 35 18 4 5 4 349 343 335 330 321 287 224 194 207 239 179 277 345 340 258 117 300 201 214 202 208 204 224 228 233 230 264 277 275 277 283 288 293
75 73 71 75 89 67 54 49 55 39 23 15 12 3 349 341 328 321 289 9 63 348 294 246 256 259 272 296 281 253 203 222 204 216 214 192 232 243 250 237 241 241 262 273 283 280 260
75 69 63 63 74 65 56 47 37 31 27 27 19 4 352 332 316 318 42 19 321 307 261 258 238 247 237 214 241 247 208 232 234 233 211 228 238 254 209 227 238 238 247 265 271 299 274
118 96 54 36 50 69 54 44 43 22 25 31 20 14 354 327 37 346 71 337 321 286 298 242 215 242 212 220 248 232 220 228 224 242 227 244 243 202 206 235 227 244 236 251 270 265 264
177 187 245 249 277 173 289 14 28 24 26 36 26 15 2 22 347 42 316 327 304 240 265 157 200 91 194 200 269 204 209 213 228 219 214 226 224 228 232 237 216 233 221 240 256 259 274
188 241 261 253 223 224 226 233 286 8 22 33 34 12 338 70 61 325 324 315 262 192 232 231 229 208 188 211 232 179 194 228 229 232 229 253 216 234 238 241 216 294 210 224 235 249 240
207 238 256 251 238 231 244 225 227 276 355 28 41 21 24 14 31 326 324 346 180 219 103 221 213 207 220 214 230 224 195 192 202 205 226 234 229 221 225 200 188 205 200 230 224 211 253
224 277 247 244 245 246 236 234 214 224 282 9 64 7 29 354 297 331 275 191 224 227 220 56 3 276 238 219 232 216 225 217 216 222 237 229 232 221 211 226 200 207 208 233 248 248 258
238 245 267 272 242 240 241 238 233 223 235 103 158 50 273 177 246 269 214 209 229 245 297 296 291 274 264 236 253 225 220 223 217 216 232 243 235 243 214 220 221 202 224 237 265 264 268
225 232 233 226 218 239 243 229 224 226 222 164 121 24 247 172 200 210 219 239 230 257 331 310 268 265 276 260 240 228 229 233 235 227 221 244 258 250 221 229 222 228 251 212 215 242 238
231 234 246 250 232 220 209 203 223 228 210 170 172 215 110 188 184 204 225 234 253 262 267 250 265 282 280 286 296 285 242 254 249 232 231 217 241 258 229 204 214 206 225 229 238 232 244
226 232 234 236 234 230 228 223 227 222 192 178 177 223 129 177 189 219 231 241 258 254 253 260 261 265 256 280 276 280 274 261 258 239 231 215 205 253 241 230 238 217 214 212 219 211 231
224 228 232 233 233 234 228 223 223 211 187 149 198 216 152 194 221 220 235 250 249 249 246 239 240 233 253 254 274 266 280 279 296 304 256 218 214 222 250 259 218 236 228 237 227 254 250
232 233 235 237 236 232 229 225 223 216 194 175 180 206 193 212 242 240 236 245 247 250 257 254 257 266 262 255 242 265 275 306 325 307 303 304 211 203 224 241 236 219 230 224 225 225 233
234 238 239 239 239 236 234 229 224 215 198 191 192 226 216 201 219 237 240 246 245 240 246 275 243 245 251 260 260 263 269 273 291 314 293 289 252 211 224 240 260 268 232 227 227 221 226
252 261 257 247 245 242 237 230 222 218 205 215 196 206 223 247 230 218 229 240 249 249 244 244 234 256 267 253 258 271 282 294 259 324 331 320 278 228 237 242 243 255 260 257 234 232 240
267 267 263 258 252 246 240 232 225 220 208 217 167 145 317 239 230 220 220 230 240 243 247 251 258 270 270 266 283 288 290 305 286 269 287 296 244 271 237 229 246 248 236 247 248 236 246
270 269 264 257 251 248 244 238 232 224 215 227 186 215 225 251 240 231 233 233 240 242 253 255 255 255 259 273 277 272 269 270 270 264 243 266 285 228 284 240 231 243 246 239 248 248 240
269 264 260 257 252 247 241 236 229 226 225 223 216 204 215 251 254 253 246 250 248 243 248 255 252 255 276 275 281 296 272 269 255 252 239 217 261 249 193 225 305 268 232 228 227 243 234
265 262 258 254 250 248 242 236 231 228 222 225 223 214 217 252 237 254 248 234 244 249 256 253 254 257 263 255 259 254 257 286 277 250 221 226 231 240 169 207 227 248 217 227 232 251 233
265 263 262 260 257 254 249 240 234 226 224 217 217 207 218 246 236 238 243 239 236 229 247 255 256 243 236 240 246 248 249 259 261 268 247 200 209 226 234 226 252 249 292 179 206 260 196
269 267 266 267 262 258 256 245 236 228 220 212 218 205 204 232 243 244 234 239 241 228 228 242 231 237 238 229 233 240 245 244 251 249 261 231 189 199 210 225 249 213 208 210 232 55 137
272 269 266 264 260 263 264 265 249 225 216 210 218 202 204 224 245 227 241 245 233 237 231 226 232 254 210 225 224 244 245 265 238 253 240 272 209 196 190 205 97 211 250 181 164 142 145